Starlink 33765

operational
NORAD ID: 63473 Int'l Des: 2025-070 Owner: SPXS Country: US Constellation: starlink
LEOCIRCULAR

Starlink 33765について

説明を読み込み中...

リアルタイム位置

3D地球を読み込み中...

次回通過

高度履歴

Altitude vs Time

uPlot chart will show altitude changes over time

軌道要素

1 63473U 25070P 25353.05831170 .00016321 00000-0 60112-3 0 9996
2 63473 43.0034 355.2703 0001279 260.4714 99.5994 15.27589852 40648
Epoch: Dec 19, 2025 • Age: 21 hours

現在のステータス

高度 484.9 km
速度 7.63 km/s
衛星直下点 34.06°N, 60.29°E
打ち上げ日 Apr 6, 2025
運用期間 0.7 years
タイプ internet

技術仕様

分類 Payload
質量 575.00 kg
乾燥質量 530.00 kg
総質量 575.00 kg
長さ 0.30 m
直径 4.10 m
スパン 29.00 m
形状 Box + pan
製造者 SPXS
バスタイプ Starlink V2MO
フェーズステータス In Orbit
所有者/国 SPXS/US

大規模コンステレーション

Loading constellations...